Regional Weather Roundup
Issued by NWS

Home | Current Version | Previous Version | Text Only | Print | Product List | Glossary On
Versions: 1 2 3 4 5 6 7 8 9 10 11 12 13 14 15 16 17 18 19 20 21 22 23 24 25 26 27 28 29 30 31 32 33 34 35 36 37 38 39 40 41 42 43 44 45 46 47 48 49 50
580
ASUS45 KPSR 181410
RWRAZ

ARIZONA HOURLY REGIONAL WEATHER ROUNDUP
NATIONAL WEATHER SERVICE PHOENIX AZ
700 AM MST WED JAN 18 2017

NOTE: FAIR INDICATES FEW OR NO CLOUDS BELOW 12,000 FEET WITH NO
SIGNIFICANT WEATHER AND/OR OBSTRUCTIONS TO VISIBILITY.

AZZ001>003-036-181500-
NORTHWEST ARIZONA

CITY           SKY/WX    TMP DP  RH WIND       PRES   REMARKS
BULLHEAD CITY  CLEAR     39  30  70 CALM      30.16R
KINGMAN        CLEAR     28  24  85 CALM      30.14R
$$

AZZ004>008-015-016-018-181500-
NORTH CENTRAL ARIZONA

CITY           SKY/WX    TMP DP  RH WIND       PRES   REMARKS
GRAND CANYON   CLEAR     18  15  88 CALM      30.16R
WILLIAMS       CLEAR     23  21  93 S7        30.15S WCI  15
PRESCOTT       CLEAR     28  26  92 SW3       30.15S
FLAGSTAFF      CLEAR     20  18  92 CALM      30.15R
PAYSON         CLEAR     34  30  86 CALM      30.18R
PAGE           CLEAR     32  24  72 W3        30.15S
$$

AZZ009>014-017-181500-
NORTHEAST ARIZONA

CITY           SKY/WX    TMP DP  RH WIND       PRES   REMARKS
WINSLOW        CLEAR     27  26  96 CALM      30.16R
SAINT JOHNS    CLOUDY    33  33 100 CALM      30.15R
SHOW LOW       MOCLDY    28  28 100 S5        30.16S WCI  23
$$

AZZ023-181500-
GREATER PHOENIX AREA

CITY           SKY/WX    TMP DP  RH WIND       PRES   REMARKS
PHOENIX        CLEAR     45  41  86 E3        30.13R
BUCKEYE        CLEAR     39  39 100 N6        30.15R WCI  35
GLENDALE       CLEAR     45  43  93 CALM      30.15R
LUKE AFB       CLEAR     41  41  99 N6        30.13R
DEER VALLEY    CLEAR     44  39  82 CALM      30.13R
SCOTTSDALE     CLEAR     44  39  82 CALM      30.15R
MESA-FALCON    PTCLDY   N/A N/A N/A N12       30.11R
MESA-GATEWAY   CLEAR     41  39  93 E3        30.14R
CHANDLER       CLEAR     41  41 100 E3        30.14R
$$

AZZ027-028-181500-
SOUTHWEST MARICOPA COUNTY AND PINAL COUNTY

CITY           SKY/WX    TMP DP  RH WIND       PRES   REMARKS
CASA GRANDE    LGT RAIN  39  39 100 N3        30.15R FOG
$$

AZZ503-504-507>509-181500-
SOUTHEAST ARIZONA

CITY           SKY/WX    TMP DP  RH WIND       PRES   REMARKS
TUCSON         CLEAR     42  38  85 SE8       30.16R
DAVIS-MONTHAN  CLEAR     40  40  99 SE6       30.15R
RYAN FIELD       N/A     37  37 100 CALM      30.16R
NOGALES        CLEAR     32  30  92 S3        30.15R
SIERRA VISTA   CLEAR     38  33  82 SW7       30.16R WCI  32
DOUGLAS        CLEAR     29  29 100 S3        30.16R
SAFFORD        CLEAR     37  35  92 CALM      30.14R
$$

AZZ020-021-025-026-031-181500-
SOUTHWEST ARIZONA

CITY           SKY/WX    TMP DP  RH WIND       PRES   REMARKS
YUMA           CLEAR     47  30  51 N3        30.13R
$$

CAZ031-033-041-043-047-048-061-181500-
SOUTHERN CALIFORNIA

CITY           SKY/WX    TMP DP  RH WIND       PRES   REMARKS
DOWNTOWN L.A.  CLEAR     48  43  82 CALM      30.16R
L.A. AIRPORT   PTCLDY    49  45  86 NE3       30.17R
SAN DIEGO      MOCLDY    51  43  74 E5        30.18R
BURBANK        CLEAR     43  34  70 NW3       30.15R
ONTARIO        PTCLDY    40  31  70 CALM      30.15S
RIVERSIDE      PTCLDY    41  36  82 NE7       30.15F
PALM SPRINGS   CLEAR     45  36  70 N5        30.15R
EL CENTRO NAS  PTCLDY    42  35  76 SW3       30.14S
IMPERIAL       CLEAR     42  35  76 S5        30.13R
BLYTHE         CLEAR     41  33  73 W5        30.15R
NEEDLES        CLEAR     40  29  64 W6        30.15R
$$

NVZ020-UTZ003-181500-
SOUTHERN NEVADA-UTAH

CITY           SKY/WX    TMP DP  RH WIND       PRES   REMARKS
LAS VEGAS      PTCLDY    38  24  57 CALM      30.14R
SALT LAKE CITY PTCLDY    21  18  88 S6        30.16F WCI  13
$$

NMZ009-TXZ055-181500-
NEW MEXICO-WEST TEXAS

CITY           SKY/WX    TMP DP  RH WIND       PRES   REMARKS
ALBUQUERQUE    LGT RAIN  36  34  92 CALM      30.13S
EL PASO        PTCLDY    35  32  88 S3        30.15R
$$


........................KEY........................
SKY/WX - SKY CONDITION/WEATHER
TMP    - TEMPERATURE IN FAHRENHEIT
DP     - DEW POINT IN FAHRENHEIT
RH     - RELATIVE HUMIDITY IN PERCENT
WIND   - DIRECTION AND SPEED IN MILES PER HOUR (MPH)
VRB    - VARIABLE WIND DIRECTION
PRES   - MEAN SEA LEVEL PRESSURE IN INCHES OF MERCURY
         F - FALLING PRESSURE   R - RISING PRESSURE
         S - STEADY PRESSURE
VSB    - VISIBILITY IN MILES
HX     - HEAT INDEX IN FAHRENHEIT
WCI    - WIND CHILL INDEX IN FAHRENHEIT
TC     - TEMPERATURE IN CELSIUS WHICH IS ALSO KNOWN AS
         TEMPERATURE IN CENTIGRADE
AFB    - AIR FORCE BASE
         LUKE AFB IS LUKE AIR FORCE BASE
         DAVIS-MONTHAN IS DAVIS-MONTHAN AIR FORCE BASE
NAS    - NAVAL AIR STATION
         EL CENTRO NAS IS EL CENTRO NAVAL AIR STATION
N/A    - NOT AVAILABLE





USA.gov is the U.S. government's official web portal to all federal, state and local government web resources and services.